Weather in Zhoushan

China     29°58′03″N   122°14′43″E
temp.,
°C
wind,
m/s
gust,
m/s
humid.,
%
clouds,
%
prec.,
mm/h
press.,
hPa
HPBL,
m
13 august, sat
sat1323:00+28s712873 0.0 1007393
02:00+27s8138955 0.0 1006445
05:00+27s812922 0.0 1006422
08:00+28s812845 0.0 1007478
11:00+29s9117744 0.0 1007426
14:00+30s81074100 0.0 1006307
17:00+29s7127998 0.0 1005320
20:00+28s9148523 0.0 1006431
14 august, sun
sun1423:00+27s9148888 0.0 1007476
02:00+27s101589100 0.0 1006537
05:00+27s8148855 0.0 1006484
08:00+28s91482100 0.0 1006538
11:00+29s9137796 0.0 1007522
14:00+30s91376100 0.0 1006431
17:00+29s91485100 0.0 1005463
20:00+28s91491100 0.0 1006560
15 august, mon
mon1523:00+28s101691100 0.0 1006621
02:00+27s91587100 0.0 1005626
05:00+27s101688100 0.0 1004571
08:00+28s101684100 0.0 1005607
11:00+29s101579100 0.0 1005565
14:00+29s101479100 0.0 1003406
17:00+28s101486100 0.0 1003425
20:00+28s91490100 0.0 1004471
16 august, tue
tue1623:00+28s101685100 0.0 1004521
02:00+27ssw10178794 0.0 1003536
05:00+27ssw10178571 0.0 1003514
08:00+29ssw91580100 0.0 1004481
11:00+30s101376100 0.0 1004462
14:00+29s91280100 0.0 1003372
17:00+29s71084100 0.0 1003305
20:00+28s91488100 0.0 1004427
17 august, wed
wed1723:00+28s10168977 0.0 1005558
02:00+28ssw10168764 0.0 1004590
05:00+28ssw9158499 0.0 1004548
08:00+28ssw81387100 0.0 1005494
11:00+30s91279100 0.0 1005510
14:00+30s91278100 0.0 1004398
17:00+29s81386100 0.0 1004410
20:00+28s8149184 0.0 1005520